Weather History for Durango, CO

Change the Weather History Date:

Friday, January 24, 2014

  Actual Average Record
Temperature  
Mean Temperature 24 °F 24 °F  
Max Temperature 42 °F 38 °F 53 °F (2003)
Min Temperature 6 °F 10 °F -6 °F (1979)
Degree Days  
Heating Degree Days 41 41  
Month to date heating degree days 885 1001  
Since 1 July heating degree days 3843 3875  
Cooling Degree Days 0 0  
Month to date cooling degree days 0 0  
Year to date cooling degree days 0 0  
Moisture  
Dew Point 11 °F    
Average Humidity 61    
Maximum Humidity 92    
Minimum Humidity 30    
Precipitation  
Precipitation 0.00 in 0.04 in 0.26 in (2008)
Month to date precipitation T 0.89  
Year to date precipitation T 0.89  
Sea Level Pressure  
Sea Level Pressure 30.59 in    
Wind  
Wind Speed 4 mph (North)    
Max Wind Speed 13 mph    
Max Gust Speed 15 mph    
Visibility 10 miles    
Events      
T = Trace of Precipitation, MM = Missing Value Source: NWS Daily Summary

Daily Weather History Graph

Daily Weather History Graph

Search for Another Location

Airport:

Trip Planner

Search our weather history database for the weather conditions in past years. The results will help you decide how hot, cold, wet, or windy it might be!

Date:

Astronomy

Jan. 24, 2014 Rise Set
Actual Time 7:19 AM MST 5:27 PM MST
Civil Twilight 6:51 AM MST 5:55 PM MST
Nautical Twilight 6:20 AM MST 6:26 PM MST
Astronomical Twilight 5:49 AM MST 6:57 PM MST
Moon 12:51 AM MST (1/24) 11:46 AM MST (1/24)
Length of Visible Light 11h 03m
Length of Day
10h 07m
Last Quarter, 44% of the Moon is Illuminated
Jan 24
Last Quarter
Jan 30
New
Feb 6
First Quarter
Feb 14
Full
Feb 22
Last Quarter

Hourly Weather History & Observations

Time (MST) Temp. Windchill Dew Point Humidity Pressure Visibility Wind Dir Wind Speed Gust Speed Precip Events Conditions
12:53 AM 15.1 °F - 10.0 °F 80% 30.57 in 10.0 mi Calm Calm - N/A   Clear
1:53 AM 14.0 °F 8.2 °F 10.9 °F 88% 30.58 in 10.0 mi East 3.5 mph - N/A   Clear
2:53 AM 14.0 °F 6.5 °F 9.0 °F 80% 30.59 in 10.0 mi North 4.6 mph - N/A   Clear
3:53 AM 10.9 °F - 8.1 °F 88% 30.61 in 10.0 mi Calm Calm - N/A   Clear
4:53 AM 9.0 °F 2.4 °F 6.1 °F 88% 30.63 in 10.0 mi NE 3.5 mph - N/A   Clear
5:53 AM 10.0 °F 0.4 °F 7.0 °F 87% 30.64 in 10.0 mi NNE 5.8 mph - N/A   Clear
6:53 AM 7.0 °F - 3.9 °F 87% 30.67 in 10.0 mi Calm Calm - N/A   Clear
7:53 AM 10.9 °F 4.7 °F 7.0 °F 84% 30.69 in 10.0 mi NNE 3.5 mph - N/A   Clear
8:53 AM 18.0 °F - 10.9 °F 74% 30.69 in 10.0 mi Calm Calm - N/A   Clear
9:53 AM 26.1 °F 21.9 °F 15.1 °F 63% 30.67 in 10.0 mi East 3.5 mph - N/A   Clear
10:53 AM 30.0 °F 26.5 °F 15.1 °F 54% 30.63 in 10.0 mi Variable 3.5 mph - N/A   Clear
11:53 AM 33.1 °F 27.7 °F 12.9 °F 43% 30.60 in 10.0 mi WSW 5.8 mph - N/A   Clear
12:53 PM 37.0 °F 32.4 °F 12.9 °F 37% 30.55 in 10.0 mi WSW 5.8 mph - N/A   Clear
1:53 PM 39.0 °F - 12.0 °F 33% 30.51 in 10.0 mi Calm Calm - N/A   Clear
2:53 PM 42.1 °F 36.6 °F 14.0 °F 32% 30.48 in 10.0 mi WSW 9.2 mph - N/A   Clear
3:53 PM 39.9 °F 35.1 °F 14.0 °F 35% 30.51 in 10.0 mi West 6.9 mph - N/A   Clear
4:53 PM 33.1 °F 25.5 °F 14.0 °F 46% 30.57 in 10.0 mi WSW 9.2 mph - N/A   Clear
5:53 PM 28.9 °F 25.2 °F 12.9 °F 51% 30.59 in 10.0 mi West 3.5 mph - N/A   Clear
6:53 PM 26.1 °F - 12.0 °F 55% 30.62 in 10.0 mi Calm Calm - N/A   Clear
7:53 PM 21.9 °F 15.7 °F 10.9 °F 63% 30.62 in 10.0 mi NNE 4.6 mph - N/A   Clear
8:53 PM 19.9 °F 14.9 °F 10.0 °F 65% 30.60 in 10.0 mi NNE 3.5 mph - N/A   Clear
9:53 PM 18.0 °F - 9.0 °F 68% 30.57 in 10.0 mi Calm Calm - N/A   Clear
10:53 PM 18.0 °F 11.1 °F 10.0 °F 71% 30.56 in 10.0 mi NE 4.6 mph - N/A   Clear
11:53 PM 19.0 °F 12.3 °F 12.0 °F 74% 30.53 in 10.0 mi North 4.6 mph - N/A   Clear